CAPE
0 334 48 28 111 282 600 523 490 737 761 811 584 538 601 356 173 95 19 31 73 28 0 3 0 0 0 0 0 0 0 0 0 0 0 0 0 0 0 0 0 0 0
0 78 254 14 6 86 525 638 507 658 895 800 878 555 531 546 505 266 174 38 60 44 2 0 0 0 0 0 0 0 0 0 0 0 0 0 0 0 0 0 0 0 0
0 0 212 2 0 44 326 627 622 600 923 880 827 737 456 531 477 498 344 253 97 86 80 21 0 0 0 0 0 0 0 1 0 0 0 0 0 0 0 0 0 0 0
0 0 0 56 9 67 180 473 550 531 826 943 784 838 727 775 747 650 598 463 277 209 136 84 24 0 0 0 0 0 0 0 0 0 0 0 0 2 39 34 0 0 0
0 0 0 51 46 51 95 297 430 468 567 812 871 826 793 668 660 652 585 481 361 311 317 171 77 52 0 0 0 0 0 0 0 0 0 0 0 0 0 0 0 40 86
0 0 0 0 32 42 68 165 337 473 452 556 724 731 760 731 600 451 521 541 494 380 293 401 315 162 85 12 0 0 0 0 0 0 0 0 0 0 0 0 0 0 0
0 0 0 0 0 8 33 68 334 499 565 470 571 602 629 677 595 496 492 574 552 536 550 358 463 439 308 175 42 0 0 0 0 3 0 0 0 0 0 0 0 35 0
0 0 0 0 0 0 0 0 11 68 618 652 577 555 608 545 550 527 602 562 623 675 695 520 505 518 549 468 232 156 7 34 15 3 15 5 0 0 14 33 52 20 29
0 0 0 0 0 0 0 0 0 0 0 259 854 833 593 672 812 666 659 745 783 806 760 684 578 591 623 609 604 340 323 102 105 98 17 87 69 9 5 24 89 116 231
0 0 0 0 0 0 0 0 0 0 0 0 0 0 154 1091 1170 1138 1110 1123 1021 1034 1038 923 889 760 712 768 682 747 512 415 234 195 294 113 201 83 126 195 183 250 492
0 0 0 0 0 0 0 0 0 0 0 0 0 0 0 0 60 1366 1660 1327 1288 1158 1086 1185 1254 1120 921 872 844 839 830 611 572 399 248 404 378 357 377 347 397 288 311
0 0 0 0 0 0 0 0 0 0 0 0 0 0 0 0 0 38 1535 1728 1403 1301 1203 1175 1386 1466 1289 1137 1022 994 894 802 746 630 430 444 433 575 686 626 515 389 142
0 0 0 0 0 0 0 0 0 0 0 0 1 62 210 197 94 43 143 952 1511 1512 1273 1272 1246 1390 1493 1325 1181 1133 1006 902 870 884 680 778 690 797 606 470 319 168 1
0 0 0 0 0 0 0 0 0 0 0 0 0 2 42 201 304 161 44 26 676 1217 1305 1195 1286 1301 1423 1314 1215 1177 1058 962 922 764 622 557 523 697 491 294 132 0 0
0 0 0 0 0 0 0 0 0 0 0 0 0 0 13 106 339 350 239 168 96 533 1191 1246 1293 1259 1383 1347 1244 1195 1131 1026 885 574 473 519 509 585 240 50 1 0 0
0 0 0 0 0 0 0 0 0 0 0 0 0 0 0 5 159 492 507 369 629 651 861 1045 1147 1169 1210 1374 1111 1290 1309 1208 811 573 472 166 84 7 0 0 0 0 0
0 0 0 0 0 0 0 0 0 0 0 0 0 0 0 0 1 305 704 631 530 596 827 1046 1068 1093 1179 1113 132 76 1538 1182 741 377 0 1 1 1 1 2 2 1 0
0 0 0 0 0 0 0 0 0 0 0 0 0 0 0 0 0 76 549 580 391 441 488 645 922 1071 937 736 1 0 1398 461 131 0 0 0 1 0 0 0 1 0 0
0 0 0 0 0 0 0 0 0 0 0 0 0 0 0 0 0 0 143 378 345 257 262 223 194 145 47 2 1 1 265 2 0 0 1 0 0 1 1 0 1 1 1
0 0 0 0 0 0 0 0 0 0 0 0 0 0 0 0 0 0 0 70 265 280 85 51 3 0 1 0 1 2 0 0 1 1 1 1 1 1 1 0 0 1 0
0 0 0 0 0 0 0 0 0 0 0 0 0 0 0 0 0 0 0 0 126 60 0 1 0 1 1 0 1 1 0 0 0 0 1 1 1 1 1 0 0 0 0
0 0 0 0 0 0 0 0 0 0 0 0 0 0 0 0 0 0 0 0 68 74 1 1 1 0 0 1 1 1 1 0 0 0 0 0 1 0 1 0 0 0 0
0 0 0 0 0 0 0 0 0 0 0 0 0 0 0 0 0 0 0 8 10 0 1 1 1 0 0 0 1 1 1 1 1 0 0 1 0 1 1 0 0 0 0
0 0 0 0 0 0 0 0 0 0 0 0 0 0 0 0 0 0 0 13 1 1 0 1 1 1 1 1 1 0 0 0 0 0 0 0 0 0 2 0 0 0 0
0 0 0 1 1 0 0 0 0 0 0 0 0 0 0 0 0 0 0 124 30 23 0 0 0 0 1 0 0 0 0 0 0 5 1 0 0 2 0 0 0 0 0
0 0 1 2 2 1 1 0 2 3 0 0 0 0 0 0 0 0 0 1 1 0 0 0 0 0 0 0 0 1 0 0 0 10 0 0 0 0 0 0 0 0 0
CIN
0 -82 -284 -326 -293 -358 -422 -480 -491 -528 -476 -442 -476 -439 -440 -485 -568 -613 -672 -740 -576 -666 -4 -712 0 0 0 0 0 0 0 0 0 0 0 0 0 0 0 0 0 0 0
0 -48 -84 -193 -64 -351 -397 -467 -490 -548 -465 -432 -413 -433 -399 -407 -399 -501 -535 -608 -596 -589 -173 0 0 0 0 0 0 0 0 0 0 -26 0 0 0 0 0 0 0 0 0
0 0 -84 -13 0 -366 -356 -418 -513 -527 -456 -454 -375 -346 -407 -398 -417 -415 -449 -494 -596 -618 -588 -672 0 0 0 0 0 0 0 -155 0 0 0 0 0 0 0 0 0 0 0
0 0 0 -200 -162 -326 -328 -368 -459 -517 -467 -469 -424 -369 -380 -359 -437 -388 -366 -388 -480 -556 -595 -617 -673 0 0 0 0 0 0 0 0 0 0 0 0 -455 -495 -597 0 0 0
0 0 0 -142 -229 -281 -355 -368 -436 -487 -440 -476 -433 -414 -380 -402 -400 -360 -364 -404 -436 -450 -490 -561 -627 -635 -52 0 0 0 0 0 0 0 0 0 0 0 0 0 0 -464 -473
0 0 0 0 -230 -256 -363 -359 -411 -438 -443 -456 -443 -426 -386 -399 -400 -443 -412 -405 -414 -437 -453 -473 -507 -562 -594 -739 0 0 0 0 0 0 0 0 0 0 0 0 0 0 0
0 0 0 0 0 -194 -409 -389 -327 -361 -391 -445 -426 -449 -435 -407 -404 -427 -413 -374 -367 -379 -399 -479 -443 -465 -520 -534 -625 -60 0 0 0 -639 0 0 0 0 0 0 -51 -345 0
0 0 0 0 0 0 0 0 -408 -381 -319 -365 -388 -381 -403 -410 -391 -366 -356 -345 -340 -333 -364 -429 -400 -428 -421 -433 -483 -487 -621 -597 -646 -661 -590 -537 0 0 -459 -386 -281 -281 -312
0 0 0 0 0 0 0 0 0 0 0 -315 -285 -303 -330 -299 -283 -310 -297 -272 -279 -276 -302 -376 -389 -401 -399 -379 -377 -429 -432 -531 -516 -497 -593 -463 -440 -479 -50 -347 -244 -170 -98
0 0 0 0 0 0 0 0 0 0 0 0 0 0 -255 -240 -172 -161 -165 -156 -177 -200 -195 -269 -312 -341 -366 -360 -340 -325 -384 -366 -447 -438 -370 -453 -370 -431 -368 -296 -258 -169 -38
0 0 0 0 0 0 0 0 0 0 0 0 0 0 0 0 -116 -120 -91 -124 -165 -150 -164 -166 -177 -260 -307 -316 -308 -320 -305 -334 -335 -368 -370 -333 -322 -310 -259 -236 -191 -189 -135
0 0 0 0 0 0 0 0 0 0 0 0 -14 0 0 0 0 -258 -131 -88 -127 -161 -128 -107 -111 -134 -216 -268 -268 -293 -294 -287 -298 -311 -317 -331 -297 -241 -197 -177 -171 -176 -224
0 0 0 0 0 0 0 0 0 0 0 0 -74 -130 -151 -212 -332 -396 -302 -169 -104 -92 -139 -100 -116 -121 -168 -225 -257 -254 -259 -274 -273 -245 -252 -234 -215 -187 -213 -222 -226 -266 0
0 0 0 0 0 0 0 0 0 0 0 0 0 -127 -298 -151 -146 -240 -377 -395 -201 -142 -125 -150 -111 -127 -154 -203 -225 -244 -265 -266 -253 -261 -246 -236 -238 -195 -239 -267 -315 0 0
0 0 0 0 0 0 0 0 0 0 0 0 0 0 -395 -189 -94 -114 -178 -270 -338 -213 -156 -148 -152 -152 -132 -178 -218 -223 -233 -218 -222 -296 -291 -251 -242 -193 -309 -421 -23 0 0
0 0 0 0 0 0 0 0 0 0 0 0 0 0 0 -369 -156 -73 -94 -158 -158 -185 -156 -153 -140 -158 -161 -144 -215 -207 -186 -183 -233 -314 -272 -365 -389 -519 0 0 0 0 0
0 0 0 0 0 0 0 0 0 0 0 0 0 0 0 0 -119 -121 -73 -96 -130 -166 -158 -126 -122 -125 -128 -159 -467 -325 -68 -111 -204 -318 0 0 0 0 0 0 0 0 0
0 0 0 0 0 0 0 0 0 0 0 0 0 0 0 0 0 -183 -80 -107 -156 -152 -173 -160 -125 -97 -149 -228 -132 0 -45 -203 -466 0 0 0 0 0 0 0 0 0 0
0 0 0 0 0 0 0 0 0 0 0 0 0 0 0 0 0 0 -98 -86 -101 -141 -187 -242 -282 -358 -545 0 0 0 -250 -56 0 0 0 0 0 0 0 0 0 0 0
0 0 0 0 0 0 0 0 0 0 0 0 0 0 0 0 0 0 0 -128 -95 -102 -228 -298 -448 0 0 0 0 0 0 0 0 0 0 0 0 0 0 0 0 0 0
0 0 0 0 0 0 0 0 0 0 0 0 0 0 0 0 0 0 0 0 -81 -163 0 0 0 0 0 0 0 0 0 0 0 0 0 0 0 0 0 0 0 0 0
0 0 0 0 0 0 0 0 0 0 0 0 0 0 0 0 0 0 0 0 -88 -85 -0 0 0 0 0 0 0 0 0 0 0 0 0 0 0 0 0 0 0 0 0
0 0 0 0 0 0 0 0 0 0 0 0 0 0 0 0 0 0 0 -121 -186 0 0 0 0 0 0 0 0 0 0 0 0 0 0 0 0 0 0 0 0 0 0
0 0 0 0 0 0 0 0 0 0 0 0 0 0 0 0 0 0 -29 -211 0 0 0 0 0 0 0 0 0 0 0 0 0 0 0 0 0 0 0 0 0 0 0
0 0 0 0 0 0 0 0 0 0 0 0 0 0 0 0 0 0 0 -202 -263 -208 0 0 0 0 0 0 0 0 0 0 0 0 0 0 0 0 0 0 0 0 0
0 -0 -0 0 0 0 0 0 0 0 0 0 0 0 0 0 0 0 0 0 0 0 0 0 0 0 0 0 0 0 0 0 0 0 0 0 0 0 0 0 0 0 0
Wind_Speed
11 22 17 21 24 25 24 25 22 18 15 13 13 12 9 9 9 8 14 11 14 15 14 9 8 7 9 10 7 5 7 7 4 3 3 4 6 8 9 7 6 7 8
12 13 22 21 22 26 25 25 24 20 17 14 12 11 10 6 7 8 10 14 13 15 15 13 10 12 6 7 9 8 4 6 6 6 2 4 5 6 6 6 8 11 6
21 11 18 18 22 26 26 25 25 24 22 20 10 7 3 5 5 9 10 13 14 15 17 16 13 9 11 9 10 10 13 10 4 8 6 3 7 1 3 9 8 10 5
13 18 10 12 22 24 26 27 25 24 22 22 17 18 14 13 14 14 11 11 14 15 17 16 15 14 9 12 10 9 9 8 9 1 9 4 4 5 3 3 3 4 5
10 12 9 12 13 21 24 25 26 24 22 21 21 17 16 13 9 10 12 12 11 15 16 17 16 15 12 12 12 11 13 10 9 8 4 10 8 4 4 5 5 2 4
11 10 7 6 9 6 12 20 22 21 22 22 22 22 22 17 13 11 11 11 11 11 14 16 17 17 14 16 13 13 13 13 11 9 6 7 7 11 6 8 7 5 5
9 11 11 8 7 10 10 11 20 21 22 23 23 22 22 22 21 17 14 13 11 10 15 17 16 14 17 16 13 13 14 13 14 14 11 9 7 4 7 5 4 5 4
8 11 10 3 8 7 6 9 11 9 17 20 22 21 22 14 15 15 13 12 12 13 16 16 17 18 17 15 15 11 12 13 13 18 14 11 10 7 5 5 6 3 4
5 7 11 4 3 7 10 8 5 7 9 16 17 16 15 14 13 16 13 11 12 10 13 14 17 18 17 17 16 14 15 13 13 15 14 11 10 9 7 5 5 6 5
5 8 7 10 10 7 3 9 10 10 6 10 7 6 7 11 14 11 12 14 11 12 13 14 17 19 17 17 18 14 15 14 12 12 13 14 11 7 6 6 6 5 8
12 8 7 7 7 9 12 9 6 8 9 5 3 4 5 7 7 9 14 13 10 13 9 13 16 17 18 17 16 18 16 17 15 13 16 14 13 10 8 6 5 6 4
9 9 9 10 8 8 8 7 9 9 6 2 2 4 4 6 7 7 7 11 12 9 11 11 13 15 17 18 19 18 16 17 17 17 14 17 10 14 11 9 11 8 7
10 9 9 8 7 8 8 8 8 7 8 7 5 1 0 3 6 7 7 7 10 12 9 11 12 14 16 17 18 18 17 18 18 17 18 17 14 14 10 9 9 7 4
8 6 8 7 6 4 4 4 5 5 5 6 6 6 6 4 5 7 8 8 8 10 12 12 13 14 15 16 17 17 17 18 17 17 16 16 16 16 13 11 10 7 7
18 14 7 7 8 9 11 10 5 1 1 2 3 4 5 6 6 7 7 8 8 9 10 12 13 12 14 13 17 18 18 17 17 13 14 14 14 14 14 9 9 10 7
19 21 20 14 15 13 9 8 12 9 6 5 4 4 5 6 7 7 7 8 7 8 8 11 12 12 10 16 20 19 17 18 17 15 14 11 13 14 17 14 14 14 11
16 16 17 16 11 8 8 8 8 6 4 5 6 6 6 6 7 10 7 7 8 6 8 9 8 12 14 16 20 22 16 15 15 13 11 7 6 12 9 9 12 9 8
16 15 13 15 16 14 10 7 7 7 7 5 5 6 6 6 6 9 11 8 6 7 7 7 8 10 10 12 17 21 17 14 15 15 14 12 10 8 12 11 10 7 6
10 12 13 14 15 16 14 13 12 10 8 8 7 5 5 7 7 7 8 9 6 6 7 6 7 7 7 10 14 15 13 10 10 11 11 13 12 14 17 13 12 7 4
11 10 12 14 14 16 17 16 13 11 11 9 8 8 7 7 8 8 7 6 6 7 5 7 7 7 6 7 9 14 8 8 7 5 6 12 14 19 19 16 15 12 8
15 12 11 12 15 17 18 18 17 16 13 11 14 13 9 8 8 7 5 6 6 6 5 6 5 6 5 7 8 12 10 10 9 9 8 6 15 19 15 17 13 12 12
16 16 16 11 13 17 17 20 20 19 18 15 12 13 14 7 5 7 7 7 5 5 5 4 5 3 5 6 11 13 13 15 13 12 6 9 18 18 15 10 15 22 13
14 14 13 17 16 16 15 18 21 20 19 18 18 16 13 10 7 6 6 4 4 4 5 4 4 4 2 2 6 7 8 11 6 8 12 19 21 17 10 17 21 16 9
16 15 16 18 20 17 18 19 21 21 20 19 18 16 13 13 9 5 5 4 4 4 6 4 6 4 3 3 2 2 2 5 6 12 12 11 12 8 9 9 7 4 5
17 16 17 17 21 21 21 21 20 19 20 19 18 17 13 11 11 7 5 6 5 5 4 6 5 5 7 8 11 11 9 7 8 13 10 9 9 8 8 7 5 4 4
18 18 19 21 23 22 24 24 20 19 22 20 16 13 11 10 9 7 4 3 3 8 8 8 9 5 12 9 15 14 14 17 24 7 13 11 10 10 9 8 7 4 6
Wind_Direction
225 197 189 182 176 174 172 178 175 177 177 185 193 202 196 194 197 188 203 185 195 197 204 205 200 193 202 208 190 173 198 224 177 159 298 281 243 241 236 227 225 230 222
234 214 197 190 174 174 177 177 180 171 181 189 193 203 202 203 199 203 200 204 192 195 200 205 204 208 201 197 196 192 182 216 180 202 117 274 306 255 226 225 229 236 226
242 223 212 187 182 173 176 179 180 178 179 184 180 185 179 199 203 207 207 207 196 193 200 205 205 197 206 210 207 200 203 217 211 195 157 175 225 293 241 230 224 230 219
238 236 188 203 184 178 177 179 180 182 182 177 180 187 199 204 210 213 214 210 201 198 199 200 201 205 201 212 208 203 207 194 210 218 222 212 152 189 304 308 255 223 229
249 234 204 183 215 176 180 181 181 180 180 181 183 188 196 210 211 212 215 209 207 206 200 200 200 204 206 209 208 204 206 203 210 211 184 229 238 211 186 258 274 294 237
256 253 217 189 177 178 197 178 177 181 183 184 189 192 197 200 203 205 206 211 209 207 204 201 203 208 207 208 206 206 207 211 213 212 205 199 204 227 210 243 243 224 252
342 254 239 177 168 154 167 185 180 187 188 190 194 195 200 200 203 202 203 202 207 207 210 204 204 206 210 210 206 206 211 209 212 212 218 222 219 179 208 204 232 224 242
317 321 244 220 139 164 201 183 169 182 200 195 200 203 202 206 210 209 207 211 208 209 207 207 209 210 208 208 207 205 210 209 214 217 216 219 223 198 177 179 195 258 226
278 354 339 14 107 145 154 178 222 228 184 199 201 206 211 215 209 217 216 214 211 207 204 200 207 210 208 207 203 210 212 209 210 218 217 214 220 215 211 191 174 186 229
229 91 50 21 25 6 339 149 162 181 179 147 162 173 188 212 222 225 221 221 216 207 202 199 205 210 208 206 206 212 217 209 213 214 209 216 218 207 196 198 193 186 221
354 29 58 56 42 38 36 11 29 120 134 140 156 179 207 213 210 219 229 225 212 213 202 204 209 208 207 208 206 214 213 214 212 210 215 213 208 210 209 193 192 187 165
358 12 11 351 27 52 35 55 51 43 29 358 160 199 211 223 228 233 231 221 214 205 213 208 210 213 208 205 206 210 210 213 214 214 208 214 201 209 205 202 200 192 190
344 354 6 16 16 44 47 37 30 26 38 49 32 99 95 280 274 263 239 229 228 229 219 217 207 208 209 208 207 208 209 213 217 212 214 215 202 208 195 191 190 184 166
314 339 347 341 347 7 29 41 27 34 41 33 28 13 349 328 287 273 263 246 224 224 221 215 219 210 209 209 207 207 209 214 217 217 218 217 209 206 192 189 186 169 168
327 330 337 330 351 14 9 346 325 297 107 17 360 339 331 311 301 290 272 259 248 239 227 224 219 209 207 205 204 207 210 213 215 209 208 211 204 198 186 180 177 168 163
16 2 27 358 20 13 7 6 353 336 1 21 2 344 349 326 300 285 282 288 273 257 236 228 227 221 218 207 199 199 206 210 208 198 203 195 180 185 178 174 167 171 165
8 2 360 357 347 357 351 356 343 318 350 355 340 335 324 308 303 287 280 279 282 287 267 249 228 230 229 210 203 201 207 202 199 188 172 165 176 163 156 131 125 118 148
358 353 356 348 341 332 335 337 338 330 298 292 294 293 296 297 306 304 280 269 270 272 271 267 247 239 238 208 204 199 201 195 185 172 170 168 163 161 148 145 127 114 99
359 345 343 339 339 338 337 343 336 327 317 301 286 268 276 286 282 285 287 275 256 254 259 260 265 257 249 214 211 194 191 179 175 167 170 164 163 166 152 138 129 121 85
347 339 342 336 336 337 336 331 325 317 312 298 288 285 268 253 254 264 274 276 252 252 252 262 251 241 246 219 232 213 172 184 170 162 158 161 160 161 161 150 150 142 159
339 332 337 332 330 337 337 326 321 309 309 320 314 287 257 248 246 253 260 269 265 257 252 260 281 269 248 215 240 259 174 187 172 178 162 143 155 163 171 157 165 158 150
336 333 328 334 334 326 328 318 312 309 317 311 298 301 283 245 234 236 257 271 261 255 253 254 276 304 289 267 221 237 257 179 199 168 166 139 163 161 154 144 133 131 126
325 326 325 319 312 309 306 300 298 304 307 306 302 295 294 266 229 214 234 241 229 232 250 224 247 258 292 281 275 265 283 197 161 162 156 157 153 151 140 141 146 141 146
321 325 321 312 304 299 293 282 286 291 295 293 293 292 288 277 260 223 203 184 201 234 267 243 252 248 236 214 151 124 126 86 81 111 120 134 123 113 118 122 141 133 145
315 316 311 305 298 300 293 287 287 288 283 285 283 283 282 271 262 235 203 187 187 177 225 238 230 226 246 231 200 179 169 166 154 133 128 138 138 145 140 140 143 131 133
314 310 307 305 302 297 292 290 289 285 284 280 273 272 276 279 271 229 203 321 191 199 220 236 233 241 250 188 192 188 179 166 158 186 159 156 155 152 154 158 147 145 137